weather.gov     
National Weather Service

Other Surface Observations
NWS Homepage
This page is being discontinued on March 12, 2014.
The same data is available at this site. Please update your bookmarks.
Thank you, and we apologize for the inconvenience.
Please send an email to SR-SRH.Webmaster@noaa.gov with any concerns.


Current Version
Previous Version:    01  
[Printable]
103
SXUS56 KLOX 262309
OSOLOX

OFFSHORE OIL PLATFORM HARVEST WEATHER
NATIONAL WEATHER SERVICE OXNARD CA
307 PM PST WED NOV 26 2014

OBSERVATION FROM DRILLING RIG "HARVEST"
LOCATION 34 DEG 28 MIN N...120 DEG 41 MIN W...12 MILES W
PT CONCEPTION ANEMOMETER LOCATED 163 FEET ABOVE SEA LEVEL.
WIND SENSOR IS PARTIALLY BLOCKED BY OIL RIG STRUCTURE.

SPECI 262220Z 33010KT 25SM SKC 19/10 A3016 RMKS
SEAS 3 TO 4 FEET

$$
















































































































































































































































































































































U.S. Dept. of Commerce
NOAA National Weather Service
1325 East West Highway
Silver Spring, MD 20910
E-mail: w-nws.webmaster@noaa.gov
Page last modified: May 16, 2007
NATIONAL WEATHER SERVICE: for Safety, for Work, for Fun - FOR LIFE